Weather History for Altus AFB, OK

Change the Weather History Date:

Tuesday, September 17, 2013

  Actual Average Record
Temperature  
Mean Temperature 78 °F -  
Max Temperature 87 °F 84 °F 107 °F (2004)
Min Temperature 69 °F 61 °F 50 °F (2008)
Cooling Degree Days 13    
Growing Degree Days 28 (Base 50)    
Moisture  
Dew Point 71 °F    
Average Humidity 86    
Maximum Humidity 100    
Minimum Humidity 51    
Precipitation  
Precipitation 0.04 in - - ()
Sea Level Pressure  
Sea Level Pressure 30.03 in    
Wind  
Wind Speed 9 mph (SSE)    
Max Wind Speed 22 mph    
Max Gust Speed 24 mph    
Visibility 10 miles    
Events Rain , Thunderstorm    
Averages and records for this station are not official NWS values.
T = Trace of Precipitation, MM = Missing Value Source: NWS Daily Summary

Daily Weather History Graph

Daily Weather History Graph

Search for Another Location

Airport:

Trip Planner

Search our weather history database for the weather conditions in past years. The results will help you decide how hot, cold, wet, or windy it might be!

Date:

Astronomy

Sep. 17, 2013 Rise Set
Actual Time 7:21 AM CDT 7:40 PM CDT
Civil Twilight 6:56 AM CDT 8:05 PM CDT
Nautical Twilight 6:26 AM CDT 8:35 PM CDT
Astronomical Twilight 5:56 AM CDT 9:05 PM CDT
Moon 6:26 PM CDT (9/17) 5:21 AM CDT (9/17)
Length of Visible Light 13h 09m
Length of Day
12h 18m
Waxing Gibbous, 96% of the Moon is Illuminated
Sep 17
Waxing Gibbous
Sep 19
Full
Sep 26
Last Quarter
Oct 4
New
Oct 11
First Quarter

Hourly Weather History & Observations

Time (CDT) Temp. Heat Index Dew Point Humidity Pressure Visibility Wind Dir Wind Speed Gust Speed Precip Events Conditions
12:09 AM 71.6 °F - 69.8 °F 94% 30.12 in 10.0 mi NNE 10.4 mph - N/A   Light Drizzle
12:55 AM 71.6 °F - 71.6 °F 100% 30.07 in 10.0 mi North 9.2 mph - 0.02 in   Light Drizzle
1:02 AM 71.6 °F - 71.6 °F 100% 30.12 in 10.0 mi NNE 10.4 mph - N/A Rain Light Rain
1:03 AM 71.6 °F - 71.6 °F 100% 30.12 in 10.0 mi NNE 10.4 mph - N/A   Mostly Cloudy
1:13 AM 71.6 °F - 71.6 °F 100% 30.13 in 10.0 mi NE 8.1 mph - N/A Thunderstorm Mostly Cloudy
1:20 AM 71.6 °F - 69.8 °F 94% 30.14 in 10.0 mi ENE 5.8 mph - N/A Rain , Thunderstorm Light Rain
1:44 AM 69.8 °F - 69.8 °F 100% 30.12 in 10.0 mi ENE 12.7 mph - N/A   Mostly Cloudy
1:58 AM 69.6 °F - 69.6 °F 100% 30.07 in 10.0 mi ENE 12.7 mph - 0.01 in   Mostly Cloudy
2:58 AM 69.6 °F - 69.6 °F 100% 30.05 in 10.0 mi NNE 6.9 mph - N/A   Overcast
3:58 AM 70.7 °F - 69.8 °F 97% 30.02 in 10.0 mi Calm Calm - N/A   Overcast
4:58 AM 70.3 °F - 69.1 °F 96% 30.02 in 10.0 mi West 4.6 mph - N/A   Overcast
5:58 AM 70.2 °F - 69.4 °F 98% 30.03 in 10.0 mi WNW 5.8 mph - N/A   Mostly Cloudy
6:58 AM 69.4 °F - 69.4 °F 100% 30.04 in 10.0 mi NW 4.6 mph - N/A   Clear
7:58 AM 69.6 °F - 69.6 °F 100% 30.06 in 10.0 mi NNW 1.2 mph - N/A   Scattered Clouds
8:58 AM 71.4 °F - 70.5 °F 97% 30.07 in 10.0 mi Calm Calm - N/A   Mostly Cloudy
9:58 AM 73.9 °F - 69.6 °F 86% 30.08 in 10.0 mi SSE 6.9 mph - N/A   Scattered Clouds
10:58 AM 76.6 °F - 70.3 °F 81% 30.06 in 4.0 mi South 5.8 mph - N/A   Haze
11:58 AM 78.8 °F - 70.2 °F 75% 30.06 in 10.0 mi Variable 4.6 mph - N/A   Partly Cloudy
12:58 PM 83.5 °F 87.7 °F 70.2 °F 64% 30.03 in 10.0 mi South 8.1 mph - N/A   Scattered Clouds
1:58 PM 87.3 °F 90.9 °F 68.2 °F 53% 30.00 in 10.0 mi SSW 4.6 mph - N/A   Scattered Clouds
2:08 PM 86.0 °F 88.2 °F 66.2 °F 51% 30.04 in 10.0 mi SSW 10.4 mph - N/A Thunderstorm Mostly Cloudy
2:13 PM 86.0 °F 89.4 °F 68.0 °F 55% 30.03 in 10.0 mi SW 9.2 mph - N/A Thunderstorm Mostly Cloudy
2:17 PM 86.0 °F 89.4 °F 68.0 °F 55% 30.03 in 10.0 mi SSW 9.2 mph - N/A   Light Drizzle
2:43 PM 84.2 °F 88.4 °F 69.8 °F 62% 30.02 in 10.0 mi South 8.1 mph - N/A Thunderstorm Partly Cloudy
2:58 PM 84.7 °F 87.9 °F 67.8 °F 57% 29.98 in 10.0 mi South 8.1 mph - 0.00 in   Partly Cloudy
3:23 PM 82.4 °F 86.3 °F 69.8 °F 66% 30.02 in 10.0 mi SSE 19.6 mph 24.2 mph N/A   Mostly Cloudy
3:31 PM 78.8 °F - 69.8 °F 74% 30.02 in 10.0 mi SE 19.6 mph 24.2 mph N/A Rain Light Rain
3:40 PM 78.8 °F - 69.8 °F 74% 30.01 in 10.0 mi SE 17.3 mph - N/A   Overcast
3:45 PM 80.6 °F 83.9 °F 69.8 °F 70% 30.01 in 10.0 mi SE 19.6 mph - N/A   Mostly Cloudy
3:58 PM 81.0 °F 84.6 °F 70.2 °F 70% 29.97 in 10.0 mi SSE 21.9 mph - 0.00 in   Scattered Clouds
4:48 PM 75.2 °F - 68.0 °F 78% 30.01 in 10.0 mi South 11.5 mph - N/A Thunderstorm Light Drizzle
4:58 PM 74.8 °F - 69.1 °F 82% 29.98 in 10.0 mi SSE 11.5 mph - 0.00 in   Light Drizzle
5:55 PM 75.2 °F - 73.4 °F 94% 29.95 in 10.0 mi South 8.1 mph - N/A Rain Light Rain
6:58 PM 74.7 °F - 74.7 °F 100% 29.96 in 10.0 mi South 6.9 mph - 0.01 in   Light Drizzle
7:00 PM 75.2 °F - 75.2 °F 100% 29.99 in 10.0 mi South 6.9 mph - N/A   Light Drizzle
7:58 PM 75.2 °F - 75.2 °F 100% 29.95 in 10.0 mi ESE 6.9 mph - N/A   Light Drizzle
8:58 PM 75.2 °F - 75.2 °F 100% 29.95 in 10.0 mi ENE 3.5 mph - N/A   Mostly Cloudy
9:58 PM 74.8 °F - 74.8 °F 100% 29.95 in 10.0 mi SSE 8.1 mph - N/A   Overcast
10:58 PM 75.0 °F - 75.0 °F 100% 29.96 in 10.0 mi SSE 6.9 mph - N/A   Overcast
11:58 PM 74.3 °F - 73.8 °F 98% 29.95 in 10.0 mi SSE 5.8 mph - N/A   Mostly Cloudy